Location: Potomac
(46.8816°N, 113.5795°W)
Time: 08:08:02
(UTC+00:00)

NANOSAT C BR1 - Pass Details

Date: 28 June 2022
Orbit: 584 x 599 km, 98.0° (Epoch: 17 August)

Event Time Altitude Azimuth Distance (km) Brightness Sun altitude
Rises 10:22:27 0° 7° (N) 2,847 ? -10.6°
Reaches altitude 10° 10:24:42 10° 360° (N) 1,943 ? -10.4°
Maximum altitude 10:28:39 40° 291° (WNW) 885 ? -9.9°
Enters shadow 10:32:07 13° 224° (SW) 1,754 ? -9.6°
